Cloud_Cover
100 100 100 100 100 54 100 5 0 0 0 0 0 0 0 0 1 5 5 5 5 5 0 0 0 0 0 0 0 0 0 0 0 0 0 0 0 0 0 0 0 0 0 0 0
92 100 100 100 100 81 39 9 0 0 0 0 0 0 0 3 5 17 5 5 5 5 0 0 0 0 0 0 0 0 0 0 0 0 0 0 0 0 0 0 0 0 0 0 0
100 100 98 100 100 20 52 51 1 0 0 0 2 0 0 5 45 5 5 0 0 0 0 0 0 0 0 0 0 0 0 0 0 0 0 0 0 0 0 0 0 0 0 0 0
97 81 100 100 88 51 25 5 5 0 0 0 0 0 0 5 34 5 1 0 0 0 0 0 0 0 0 0 0 0 0 0 0 0 0 0 0 0 0 0 0 0 0 0 0
73 76 100 100 100 89 90 44 2 2 0 0 0 0 0 5 2 4 0 0 0 0 0 0 0 0 0 0 0 0 0 0 0 0 0 0 0 0 0 0 0 0 0 0 0
21 100 86 100 100 100 100 85 4 0 0 5 0 0 0 4 0 0 0 0 0 0 0 0 0 0 0 0 0 0 0 0 0 0 0 0 0 0 0 0 0 0 0 0 0
16 84 100 100 100 100 81 2 0 5 5 58 39 2 0 0 0 5 0 0 0 0 0 0 0 0 0 0 0 0 0 0 0 0 0 0 0 0 0 0 0 0 0 0 0
98 100 93 100 100 100 53 23 41 19 95 84 2 0 3 0 2 0 0 0 0 0 0 0 0 0 0 0 0 0 0 0 0 0 0 0 0 0 0 0 0 0 0 0 0
94 65 92 21 68 100 100 100 62 46 45 76 5 2 0 0 0 0 0 0 0 0 0 0 0 0 0 0 0 0 0 0 0 0 0 0 0 0 0 0 0 0 0 0 0
5 69 33 56 36 30 100 100 100 100 98 12 3 0 0 0 0 0 0 0 0 0 0 0 0 0 0 0 0 0 0 0 0 0 0 0 0 0 0 0 0 0 0 0 0
5 5 5 66 96 72 99 41 59 5 1 0 0 0 0 0 0 0 0 0 0 0 0 0 0 0 0 0 0 0 0 0 3 1 0 0 0 0 0 0 5 0 0 0 0
0 0 5 85 48 31 14 10 6 5 5 0 0 0 0 0 0 0 0 0 0 0 0 0 0 0 0 0 0 0 0 2 0 1 30 5 5 5 5 5 4 0 0 0 0
3 0 0 0 0 7 44 50 17 38 20 5 4 0 0 0 0 0 0 0 0 0 0 0 0 0 0 0 0 0 0 0 0 0 3 39 18 5 4 1 0 0 0 0 0
99 3 1 0 0 0 0 1 0 0 0 0 0 0 0 0 0 0 0 0 0 0 0 0 0 0 0 0 0 0 0 1 5 5 5 5 5 0 0 0 0 0 0 0 0
100 100 38 5 1 1 0 0 0 0 0 0 0 0 0 0 0 0 0 0 0 0 0 0 0 0 0 0 0 2 5 4 5 5 5 0 0 0 0 0 0 0 0 0 0
91 59 69 71 1 8 1 0 0 0 0 0 0 0 0 0 0 0 0 0 0 0 0 0 1 3 2 5 5 5 5 4 3 0 2 0 0 0 0 0 0 0 0 0 0
3 0 4 14 92 6 5 5 0 0 0 0 0 0 0 0 0 0 0 0 0 0 0 3 2 4 3 0 0 0 0 3 2 5 2 0 0 0 0 0 0 0 0 0 0
0 3 0 0 0 6 5 4 0 0 0 0 0 0 0 0 0 0 0 0 0 0 0 0 0 0 0 0 4 2 0 5 0 5 5 0 0 0 0 0 0 0 0 0 0
4 3 0 0 0 0 0 0 0 0 0 0 0 0 0 0 0 0 0 0 0 0 0 0 2 5 5 0 0 0 3 0 0 5 18 3 2 5 5 5 4 3 0 0 0
5 5 5 5 5 1 1 0 0 0 0 0 0 0 0 0 0 0 0 0 0 1 3 5 27 44 2 0 0 0 0 0 4 5 5 5 18 6 3 0 2 0 0 0 0
8 20 5 7 7 5 5 5 5 5 5 3 4 5 5 5 5 4 5 4 5 5 4 4 4 5 5 5 5 5 6 5 5 6 7 33 7 9 0 0 0 0 0 0 3
5 7 5 5 5 5 5 5 5 5 5 5 5 5 5 3 5 4 2 0 5 0 1 4 5 5 5 6 83 100 100 61 5 5 5 5 36 10 0 0 0 0 0 0 1
20 6 5 18 60 5 5 5 5 54 97 84 45 22 78 98 91 100 98 98 81 54 52 30 20 38 67 100 83 86 61 24 44 12 5 20 10 5 4 0 0 0 0 0 5
100 99 24 32 38 90 89 93 57 58 24 5 29 54 84 100 100 98 100 100 100 100 100 88 100 87 42 40 48 97 100 98 83 77 5 5 4 5 1 0 0 0 0 3 5
36 100 100 98 98 88 85 100 100 100 100 72 66 53 70 98 74 77 100 100 100 100 100 100 100 100 100 100 100 100 90 100 24 5 19 4 0 3 0 0 0 5 5 5 5
44 92 100 100 100 95 100 100 100 99 100 100 100 100 100 100 97 100 100 100 100 100 100 70 35 28 79 5 25 26 90 33 20 5 5 5 9 0 0 2 4 5 5 5 6
5 5 5 77 100 98 100 100 100 100 100 84 82 86 98 100 97 96 99 100 76 97 64 47 81 82 65 6 22 52 96 20 5 4 5 5 2 5 5 6 71 45 88 100 16